Powrót do katalogu

KUIPER-00198

AktywnyŁącznośćLEO
NORAD 67770·PAYLOAD·🇺🇸 United States

Wystrzelony Feb 12, 2026 z Guiana Space Centre

Loading…

Następne Przeloty (najbliższe 24 godziny)

TLE

ŚwieżeSource: CelesTrak SupGP

Epoka: Sep 15, 2026, 03:25 UTC

1 67770C 26030G   26258.14270833  .00002115  00000+0  27690-3 0  2582
2 67770  51.8968  82.8302 0000874 113.8952   5.6534 14.79927288    18

Śledź KUIPER-00198 w czasie rzeczywistym z AllMySat

Download on the App Store